Weather in Gola Pristan

Ukraine / Kherson District     46°32′00″N   32°31′57″E
temp.,
°C
wind,
m/s
gust,
m/s
humid.,
%
clouds,
%
prec.,
mm/h
press.,
hPa
HPBL,
m
13 may, thu
thu1300:00+9nne11722 0.0 101214
03:00+8ene22764 0.0 101214
06:00+8e338097 0.0 101241
09:00+14ese455266 0.0 1012631
12:00+19se4441100 0.0 10111093
15:00+21s553823 0.0 10111471
18:00+21s3542100 0.0 10101316
21:00+15ese116818 0.0 101024
14 may, fri
fri1400:00+12ese347266 0.0 100969
03:00+11ssw11885 0.0 100910
06:00+11sse3379100 0.0 100846
09:00+17s5760100 0.0 1009528
12:00+21ssw68529 0.0 1009892
15:00+21sw785137 0.0 1009973
18:00+20ssw675591 0.0 1010607
21:00+15ssw5107536 0.0 1011204
15 may, sat
sat1500:00+14ssw5108416 0.0 1012196
03:00+13ssw499165 0.0 1012161
06:00+13sw36893 0.0 1013113
09:00+19sw4562100 0.0 1013501
12:00+23sw5645100 0.0 10141517
15:00+24sw554177 0.0 10131541
18:00+22wsw3344100 0.0 1013989
21:00+16wsw22695 0.0 101311
16 may, sun
sun1600:00+15nne22700 0.0 101211
03:00+14ne337246 0.0 101239
06:00+14ne357497 0.0 101279
09:00+21ne5752100 0.0 1011475
12:00+26ene563660 0.0 10091725
15:00+28ene453145 0.0 10082399
18:00+26ne5743100 0.0 1007795
21:00+19ne41080100 2.5 1006234
17 may, mon
mon1700:00+18nne61186100 4.3 1005315
03:00+17ne4894100 8.8 1004219
06:00+16nw5697100 3.2 1004219
09:00+19n558465 4.4 1004510
12:00+23n546995 0.2 1005997
15:00+23wnw656439 2.9 10061136
18:00+22wnw67663 0.1 1006725
21:00+18w58820 0.1 1008185